Other Public Products
Issued by NWS Grand Forks, ND

Home | Current Version | Previous Version | Text Only | Print | Product List | Glossary Off
Versions: 1 2 3 4 5 6 7 8 9 10 11 12 13 14 15 16 17 18 19 20 21 22 23 24 25 26 27 28 29 30 31 32 33 34 35 36 37 38 39 40 41 42 43 44 45 46 47 48 49 50

000
FPUS83 KFGF 211810
OPUFGF
PRAIRIE TO PINES WEATHER ROUNDUP
NATIONAL WEATHER SERVICE EASTERN NORTH DAKOTA/GRAND FORKS ND
1200 PM CST FRI NOV 21 2014

 **SATELLITE DATA USED TO AUGMENT SKY COVER AT AUTOMATED STATIONS**
 *****  WEATHER ACROSS EASTERN NORTH DAKOTA  *****

CITY           SKY/WX    TMP DP  RH WIND       PRES   REMARKS
GRAND FORKS    PTSUNNY   30  19  63 S23G30    29.73F WCI  17
6HR MIN TEMP:  13; 6HR MAX TEMP:  30;

GRAND FORKS AF SUNNY     30  19  64 S20G25    29.70F WCI  17
GRAND CITY NWS NOT AVBL
BUXTON         NOT AVBL
DEVILS LAKE    MOSUNNY   32  19  59 SW15      29.63F WCI  22
6HR MIN TEMP:  19; 6HR MAX TEMP:  32;

FARGO          SUNNY     31  19  61 S24G30    29.81F WCI  17
6HR MIN TEMP:  14; 6HR MAX TEMP:  31;

WAHPETON ARPT  CLEAR     27  19  74 S18       29.86F WCI  13
$$

 *****  WEATHER ACROSS CENTRAL AND WESTERN NORTH DAKOTA  *****

CITY           SKY/WX    TMP DP  RH WIND       PRES   REMARKS
JAMESTOWN      SUNNY     32  22  66 SW13      29.72F WCI  22
6HR MIN TEMP:  14; 6HR MAX TEMP:  33;

BISMARCK       MOSUNNY   33  22  63 CALM      29.75F
6HR MIN TEMP:  13; 6HR MAX TEMP:  35;

MINOT          SUNNY     47  27  45 SW22G30   29.58F
6HR MIN TEMP:  26; 6HR MAX TEMP:  47;

MINOT AFB      SUNNY     47  29  50 W18G25    29.58F
6HR MIN TEMP:  26; 6HR MAX TEMP:  47;

GARRISON         N/A     43  30  60 SW17      29.66F
6HR MIN TEMP:  22; 6HR MAX TEMP:  43;

WILLISTON      SUNNY     41  27  57 SW10      29.65F
6HR MIN TEMP:  18; 6HR MAX TEMP:  41;

DICKINSON      SUNNY     39  27  62 W15       29.70F
6HR MIN TEMP:  31; 6HR MAX TEMP:  39;

HETTINGER      MOSUNNY   40  27  59 W12       29.78F
6HR MIN TEMP:  20; 6HR MAX TEMP:  40;

$$

 *****  OTHER OBSERVATIONS NORTHEAST NORTH DAKOTA  *****

CITY           SKY/WX    TMP DP  RH WIND       PRES   REMARKS
WALHALLA         N/A     36  23  60 SW12G18   29.61F
LANGDON        FAIR      32  25  74 SW17      29.59F WCI  21
CAVALIER       FAIR      32  21  64 S10       29.64F WCI  24
GRAFTON        FAIR      28  19  69 S21G26    29.67F WCI  15
CANDO          FAIR      39  25  56 SW15      29.61F
FORT TOTTEN      N/A     34  24  65 S7        29.95
ROLLA          FAIR      32  25  74 SW21G26   29.56F WCI  20
RUGBY          FAIR      41  28  60 SW17G24   29.59F
 ***** THE ABOVE OBSERVATIONS ARE NON NWS ARE NOT QUALITY
        CONTROLLED AND MAY MIS-REPORT RAIN FOR SNOW...
$$

 *****  OTHER OBSERVATIONS SOUTHEAST NORTH DAKOTA *****

CITY           SKY/WX    TMP DP  RH WIND       PRES   REMARKS
COOPERSTOWN    NOT AVBL
VALLEY CITY    FLURRIES  27  23  86 S21       29.75F WCI  13
OAKES            N/A     27  21  80 S23G30    29.80F WCI  12
GWINNER        CLEAR     30  23  74 SW25G33   29.81F WCI  16
BUFFALO        NOT AVBL
WYNDMERE       NOT AVBL
 ***** THE ABOVE OBSERVATIONS ARE NON NWS ARE NOT QUALITY
       CONTROLLED AND MAY MIS-REPORT RAIN FOR SNOW...
$$

  *****  WEATHER ACROSS NORTHERN MINNESOTA  *****

CITY           SKY/WX    TMP DP  RH WIND       PRES   REMARKS
FLAG ISLAND    MOSUNNY   25  18  74 S20G26    29.67F HAZE    WCI  11
WARROAD        MOSUNNY   27  19  74 S14G23    29.70F WCI  15
ROSEAU         MOSUNNY   27  19  74 S17G24    29.69F WCI  14
HALLOCK        MOSUNNY   25  18  74 S22       29.68F WCI  10
THF RVR FALLS  MOSUNNY   25  19  80 S23G30    29.74F WCI  10
6HR MIN TEMP:  14; 6HR MAX TEMP:  25;

HALSTAD          N/A     30  19  64 S24         N/A  WCI  16
FOSSTON        SUNNY     27  19  74 S25       29.78F WCI  11
BAUDETTE       SUNNY     26  16  65 S17       29.72F WCI  13
6HR MIN TEMP:  12; 6HR MAX TEMP:  26;

WASKISH        FAIR      28  18  64 S3        29.78F
CROOKSTON      SUNNY     27  19  74 S29       29.77F WCI  11
$$
  *****  WEATHER ACROSS CENTRAL AND WEST MINNESOTA  *****

CITY           SKY/WX    TMP DP  RH WIND       PRES   REMARKS
BEMIDJI        MOSUNNY   26  16  67 S12G21    29.80F WCI  15
PARK RAPIDS    SUNNY     26  18  71 S21G28    29.85F WCI  12
6HR MIN TEMP:   6; 6HR MAX TEMP:  26;

WADENA         SUNNY     27  18  69 S18G26    29.89F WCI  13
DETROIT LAKES  SUNNY     28  21  74 S16       29.83F WCI  17
MOORHEAD       SUNNY     28  21  74 S21G29    29.83F WCI  15
FERGUS FALLS   SUNNY     25  16  68 S22G29    29.91F WCI  10
ELBOW LAKE       N/A     23  17  80 S22       29.89F WCI   7
MORRIS MN      MOSUNNY   27  19  74 S15       29.91F WCI  15
STAPLES        SUNNY     27  18  69 S17       29.91F WCI  14
WHEATON        MOSUNNY   27  19  74 S15       29.89F WCI  15
$$
  *****  WEATHER ELSEWHERE ACROSS MINNESOTA  *****

CITY           SKY/WX    TMP DP  RH WIND       PRES   REMARKS
DULUTH         PTSUNNY   22  12  65 S20G31    29.95F WCI   7
6HR MIN TEMP:   6; 6HR MAX TEMP:  22;

INTRNTL FALLS  SUNNY     26  14  60 SW16G23   29.77F WCI  14
6HR MIN TEMP:   9; 6HR MAX TEMP:  26;

ELY            CLOUDY    25  14  63 S15G21    29.86F WCI  12
CLOQUET        MOSUNNY   21  12  68 S14G29    29.97F WCI   8
BRAINERD       SUNNY     22  15  75 S17G28    29.95F WCI   8
6HR MIN TEMP:   6; 6HR MAX TEMP:  22;

HIBBING        MOSUNNY   25  12  58 S12G26    29.89F WCI  14
6HR MIN TEMP:   1; 6HR MAX TEMP:  25;

ALEXANDRIA     MOSUNNY   24  17  74 S20G26    29.93F WCI  10
6HR MIN TEMP:  15; 6HR MAX TEMP:  24;

SAINT CLOUD    SUNNY     25  15  66 S17G28    30.02F WCI  12
6HR MIN TEMP:   1; 6HR MAX TEMP:  25;

MINNEAPOLIS    PTSUNNY   23  13  65 S17       30.12F WCI   9
6HR MIN TEMP:   6; 6HR MAX TEMP:  23;

$$

  *****  WEATHER ACROSS SOUTH DAKOTA  *****

CITY           SKY/WX    TMP DP  RH WIND       PRES   REMARKS
SIOUX FALLS    PTSUNNY   30  22  72 S23G36    29.98F WCI  17
6HR MIN TEMP:  17; 6HR MAX TEMP:  30;

BROOKINGS      NOT AVBL
WATERTOWN      SUNNY     27  21  78 S18G26    29.87F WCI  14
6HR MIN TEMP:  15; 6HR MAX TEMP:  27;

HURON          MOSUNNY   31  23  72 S15G21    29.89F WCI  20
6HR MIN TEMP:  18; 6HR MAX TEMP:  31;

SISSETON         N/A     31  23  72 SW14G24   29.84F WCI  21
ABERDEEN       SUNNY     27  20  75 S15       29.85F WCI  15
6HR MIN TEMP:  17; 6HR MAX TEMP:  27;

MITCHELL       MOSUNNY   36  26  67 S16       29.92F
PIERRE         SUNNY     28  20  71 SW6       29.84F WCI  22
6HR MIN TEMP:  16; 6HR MAX TEMP:  28;

MOBRIDGE       MOSUNNY   32  23  69 S7        29.77F
RAPID CITY     PTSUNNY   49  30  48 CALM      29.83S
6HR MIN TEMP:  30; 6HR MAX TEMP:  49;

$$

  *****  SOME WEATHER IN NEARBY STATES *****

CITY           SKY/WX    TMP DP  RH WIND       PRES   REMARKS
GLASGOW MT     SUNNY     39  29  67 W13       29.69S
6HR MIN TEMP:  20; 6HR MAX TEMP:  40;

GREAT FALLS MT MOSUNNY   47  28  47 SW21G28   29.77F
6HR MIN TEMP:  38; 6HR MAX TEMP:  47;

CHEYENNE WY    MOSUNNY   49  17  28 W18G29    29.95S
6HR MIN TEMP:  37; 6HR MAX TEMP:  50;

SCOTTSBLUFF NE PTSUNNY   50  24  36 CALM      29.92F
6HR MIN TEMP:  28; 6HR MAX TEMP:  50;

OMAHA NE       PTSUNNY   34  22  61 S14       30.16F WCI  25
6HR MIN TEMP:  17; 6HR MAX TEMP:  34;

DES MOINES IA  PTSUNNY   33  17  51 S15       30.23F WCI  23
6HR MIN TEMP:  16; 6HR MAX TEMP:  33;

DAVENPORT IA   SUNNY     30   6  36 S15       30.35F WCI  19
6HR MIN TEMP:   7; 6HR MAX TEMP:  30;

CHICAGO IL     MOSUNNY   28   0  29 S9        30.40F WCI  19
6HR MIN TEMP:   7; 6HR MAX TEMP:  28;

EAU CLAIRE WI  PTSUNNY   20   6  55 S12       30.20F WCI   8
6HR MIN TEMP:  -3; 6HR MAX TEMP:  20;

LA CROSSE WI   SUNNY     25   7  46 S18       30.27F WCI  11
6HR MIN TEMP:   4; 6HR MAX TEMP:  25;

$$

  *****  SOME NATIONAL WEATHER *****

CITY           SKY/WX    TMP DP  RH WIND       PRES   REMARKS
LA GUARDIA NY  MOSUNNY   35  14  42 NW25      30.29R WCI  23
6HR MIN TEMP:  28; 6HR MAX TEMP:  36;




USA.gov is the U.S. government's official web portal to all federal, state and local government web resources and services.